This is the latest recevied weather packets stored in our database for station/object AB4KY. If no packets are shown the sender has not sent any weather packets the latest 1 day(s).
| Time | Temp. | Humidity | Pressure | Rain* | Wind** | Luminosity | Snow |
|---|---|---|---|---|---|---|---|
| 1778032216 | 15° C | 99% | 1004.8 hPa | 0 mm | - | 0 W/m² | - |
| 1778031914 | 15° C | 99% | 1004.8 hPa | 0 mm | - | 0 W/m² | - |
| 1778031308 | 15° C | 99% | 1004.8 hPa | 0 mm | - | 0 W/m² | - |
| 1778030700 | 15° C | 99% | 1004.5 hPa | 0 mm | - | 0 W/m² | - |
| 1778030397 | 15° C | 99% | 1004.6 hPa | 0 mm | - | 0 W/m² | - |
| 1778029791 | 15° C | 99% | 1004.4 hPa | 0 mm | - | 0 W/m² | - |
| 1778029490 | 15° C | 99% | 1004.3 hPa | 0 mm | - | 0 W/m² | - |
| 1778028884 | 15° C | 99% | 1004.3 hPa | 0 mm | - | 0 W/m² | - |
| 1778028277 | 15° C | 99% | 1004.3 hPa | 0 mm | - | 0 W/m² | - |
| 1778027973 | 15° C | 99% | 1004.4 hPa | 0 mm | - | 0 W/m² | - |
| 1778027670 | 15.56° C | 99% | 1004.3 hPa | 0 mm | - | 0 W/m² | - |
| 1778027366 | 15.56° C | 99% | 1004.5 hPa | 0 mm | - | 0 W/m² | - |
| 1778027062 | 15.56° C | 99% | 1004.4 hPa | 0 mm | - | 0 W/m² | - |
| 1778026455 | 15.56° C | 99% | 1004.4 hPa | 1.27 mm | - | 0 W/m² | - |
| 1778024941 | 15.56° C | 99% | 1004.2 hPa | 0 mm | - | 16 W/m² | - |
| 1778024033 | 15.56° C | 99% | 1004.7 hPa | 1.27 mm | - | 21 W/m² | - |
| 1778023428 | 15.56° C | 99% | 1004.8 hPa | 0 mm | - | 11 W/m² | - |
| 1778022822 | 15.56° C | 99% | 1004.6 hPa | 1.78 mm | - | 45 W/m² | - |
| 1778021611 | 16.11° C | 99% | 1005.1 hPa | 3.56 mm | - | 12 W/m² | - |
| 1778018881 | 16.11° C | 99% | 1005.2 hPa | 0 mm | - | 21 W/m² | - |
| 1778018578 | 16.67° C | 99% | 1005.1 hPa | 0 mm | - | 26 W/m² | - |
| 1778018276 | 16.11° C | 99% | 1005 hPa | 0 mm | - | 39 W/m² | - |
| 1778017671 | 16.11° C | 99% | 1005 hPa | 0 mm | - | 16 W/m² | - |
| 1778016763 | 16.11° C | 99% | 1005.6 hPa | 0 mm | - | 34 W/m² | - |
| 1778015550 | 16.11° C | 99% | 1005.6 hPa | 0.51 mm | - | 35 W/m² | - |
* Rain latest hour (hover to see other rain measurements)
** Current wind speed in m/s (hover to see current wind gust speed)